Tracking 30995 objects as of 5-Jul-2025
HD Live streaming from Space Station
objects crossing your sky now

OSCAR 32

Track OSCAR 32 now!
10-day predictions
OSCAR 32 is classified as:


NORAD ID: 19071
Int'l Code: 1988-033B
Perigee: 1,021.6 km
Apogee: 1,301.9 km
Inclination: 90.3 °
Period: 108.4 minutes
Semi major axis: 7532 km
RCS: 1.686 m2 (large)
Launch date: April 26, 1988
Source: United States (US)
Launch site: AIR FORCE WESTERN TEST RANGE (AFWTR)
Your satellite tracking list
STARLINK-4155
Track 1 satellite(s)




NASA's NSSDC Master Catalog

Two Line Element Set (TLE):
1 19071U 88033B   25186.09632303  .00000061  00000-0  11023-3 0  9995
2 19071  90.3165  11.5019 0186009 254.0726 223.7462 13.27925944801754
Source of the keplerian elements: AFSPC